Location: Waco, TX
(31.5480°N, 97.1670°W)
Time: 15:06:47
(UTC-05:00)

ISS - Pass Details

Date: 19 September 2019
Orbit: 411 x 421 km, 51.6° (Epoch: 17 September)

Event Time Altitude Azimuth Distance (km) Brightness Sun altitude
Rises 04:38:19 0° 313° (NW) 2,346 - -33.1°
Reaches altitude 10° 04:40:25 10° 312° (NW) 1,483 - -32.7°
Maximum altitude 04:43:44 74° 227° (SW) 433 - -32.0°
Drops below altitude 10° 04:47:03 10° 142° (SE) 1,480 - -31.4°
Sets 04:49:08 0° 140° (SE) 2,341 - -31.0°
